Temp_Advection
nan nan nan nan nan nan nan nan nan nan nan nan nan nan nan nan nan nan nan nan nan nan nan nan nan nan nan nan nan nan nan nan nan nan nan nan nan nan nan nan nan nan nan nan
nan -0 -1 -1 -0 0 -1 -0 -0 0 -0 -0 -0 -0 -0 -0 -0 -0 -0 -0 -0 0 0 -0 -1 -1 -2 0 -0 -1 0 0 -0 0 -0 0 0 -0 -0 0 -0 -0 -0 nan
nan -0 -0 -1 -1 0 0 -0 -0 -0 -0 -0 -0 -1 -0 -1 -1 -1 -0 -0 0 0 0 -0 -0 -1 -1 -0 0 0 0 0 -0 -1 -0 -0 -0 0 0 1 0 -0 -1 nan
nan -0 -0 -1 -1 -0 -0 -0 -0 -0 -0 -0 -0 -0 -0 -0 -1 -1 -1 -0 -0 -0 -0 -0 -0 -0 -2 0 -0 1 0 1 0 -0 -0 -0 -0 -0 0 0 -1 -0 -0 nan
nan -0 -0 -0 -0 -1 -0 -0 -0 0 -0 -0 -0 -0 0 -0 -0 -0 -0 -0 -1 -0 -0 -1 -0 -1 -1 0 1 -0 0 0 0 0 0 1 1 0 0 -0 -0 -0 0 nan
nan -0 -0 -0 -0 -1 -0 -1 -0 -0 -0 -0 -0 -0 -0 -0 -1 -0 -0 0 0 -1 -1 -0 1 -0 -3 -1 1 0 1 -0 0 -0 0 -0 -0 -0 -0 -0 -0 1 1 nan
nan -0 -0 -0 -0 -0 -0 -0 -0 -0 -0 -0 0 -0 -0 -0 -0 -1 -1 -0 -1 -1 0 -0 -1 -1 -1 0 0 -0 -0 0 -0 0 0 0 -1 0 -0 0 1 1 0 nan
nan -0 -0 -0 -0 -0 -0 -0 -0 -0 -0 -0 -0 -0 -0 -1 -1 -0 0 -0 -1 -1 -0 -0 -0 -0 0 0 0 0 -0 -0 0 -0 -0 -0 0 0 0 0 0 0 0 nan
nan -0 -0 -0 -0 -0 -1 -0 -0 -0 -0 -0 -0 -0 -0 -0 -0 -0 -0 -1 -1 -0 -0 -0 -0 0 -0 -0 0 -0 0 0 0 0 0 -0 -0 0 0 -0 0 0 -0 nan
nan -0 -0 -0 -0 -0 -0 -0 0 -0 -0 -0 -0 -0 -0 -0 -0 -0 -0 -0 -1 -0 -0 -0 0 0 0 -0 -0 0 0 0 -0 -0 0 -0 -0 -0 0 0 0 -0 0 nan
nan -0 -0 -0 0 0 -0 -0 0 0 0 -1 -0 0 0 -0 -0 -0 -1 -0 0 -0 -0 0 0 0 0 0 0 -0 -0 -0 -0 -0 0 0 1 -0 1 0 -0 -0 1 nan
nan 1 2 1 1 1 0 -0 -0 0 -0 -0 0 0 0 0 0 0 -0 -0 -0 -0 -0 -0 -0 0 -0 0 0 -0 0 0 0 0 0 -1 -1 -0 0 0 0 0 1 nan
nan 2 2 1 1 0 0 -0 -0 0 -0 -0 -0 -0 0 0 0 0 -0 -0 -0 -0 -0 -0 -0 0 -0 0 0 0 -0 -1 0 0 -1 -0 -0 0 0 0 1 1 1 nan
nan 1 0 0 0 -0 0 0 -0 -0 -0 -0 -0 0 0 0 0 0 0 -0 -0 -0 -0 -0 -0 -0 -0 -0 -0 -1 -0 -1 -1 -0 -0 0 -0 0 0 1 1 2 2 nan
nan 0 -0 -0 0 0 -0 0 -0 -0 -0 -0 -1 -0 0 0 1 0 0 0 -0 -0 -0 -0 -0 -0 -0 -0 -0 -1 -1 -0 -0 -0 -0 -0 0 0 0 1 1 2 1 nan
nan 0 -0 0 -0 -0 0 0 -0 0 0 -0 -0 -0 -0 -0 -0 -0 -0 0 0 -0 -0 -0 -0 -0 -1 -0 -1 -1 -1 -1 -1 -0 0 1 1 1 1 1 1 1 1 nan
nan 0 -0 -0 -0 -0 -0 -0 0 0 0 -0 -0 -1 -1 -1 -1 -0 -0 -0 0 -0 -0 -0 -0 -0 -1 -0 -0 -0 -1 -1 -1 -0 0 0 0 0 2 1 1 1 1 nan
nan 0 0 -0 -0 -0 -0 0 0 -0 -0 -0 -0 -1 -2 -1 -1 -1 -0 -0 -0 -0 -0 -0 -0 -0 -1 -0 -1 -1 -1 -0 -0 -0 -0 0 1 1 1 1 1 0 0 nan
nan 0 -0 -0 -0 -0 -0 0 -0 -1 -0 -0 -0 0 -1 -2 -1 -1 -0 -0 -0 -0 -0 -0 -0 -0 -1 -0 -0 -0 -0 -0 0 0 1 1 1 1 1 2 1 0 1 nan
nan -0 -0 -0 -0 -0 -0 -0 -1 -1 -1 -1 -0 -0 -0 -1 -1 -0 -1 -0 -0 0 -0 0 -0 -0 -0 -1 -0 -0 0 0 0 -0 -0 0 0 1 1 1 1 1 0 nan
nan -1 -0 -0 -0 -0 -1 -2 -1 -1 -0 -0 -0 -1 -0 -1 -0 -0 -0 -0 -0 -0 -0 -0 -0 -0 -0 -0 -0 0 0 1 0 -0 -0 1 1 1 0 0 1 1 1 nan
nan -0 -0 -0 -1 -2 -2 -0 -1 -1 -0 -0 -0 -1 -0 -1 -1 -0 -0 -0 -0 -0 -0 -0 -1 -0 -0 -0 0 0 1 1 1 0 -0 1 1 1 1 1 1 1 -0 nan
nan -0 -1 -1 -1 -2 -0 0 -0 -0 -1 -0 -0 -0 -0 -0 -0 -0 -0 -0 -0 -0 -0 -0 -0 -0 -0 -0 0 0 0 1 1 0 0 1 1 1 1 0 -0 1 1 nan
nan -1 -1 -0 -0 0 -0 -0 -0 -0 0 0 -0 -1 -0 -0 -0 -0 -0 -0 -0 -0 -0 -0 -0 -0 -0 -0 0 0 0 0 0 0 0 0 0 0 0 1 1 0 -0 nan
nan -0 -0 0 -0 -0 0 0 0 -0 0 1 0 -0 -0 -0 -0 -0 -0 -0 -0 -0 -0 -0 -0 -0 -0 -0 0 0 0 0 0 0 0 -0 1 1 1 0 0 0 0 nan
nan -0 -0 -0 -0 0 0 0 0 -0 -0 -0 0 -0 -0 -0 -0 -0 -0 -0 -0 -0 -0 -0 -0 -0 -0 -0 0 0 0 0 0 0 -0 0 1 0 -0 0 0 0 0 nan
nan nan nan nan nan nan nan nan nan nan nan nan nan nan nan nan nan nan nan nan nan nan nan nan nan nan nan nan nan nan nan nan nan nan nan nan nan nan nan nan nan nan nan nan
Wind_Speed
35 33 34 35 36 31 25 10 3 12 11 2 2 3 11 11 11 15 3 6 9 6 3 6 6 18 21 31 21 21 14 2 6 9 3 2 8 10 10 9 7 3 5 8
35 35 34 34 33 32 21 13 4 8 8 4 4 9 12 13 12 11 3 7 8 5 3 3 8 13 17 30 23 21 12 5 5 5 1 2 11 14 17 6 4 10 7 4
35 34 34 34 28 23 13 5 3 4 4 4 5 10 8 11 15 13 11 12 11 7 5 5 7 8 7 11 24 29 17 5 7 11 9 7 5 11 7 11 3 4 8 5
36 35 33 34 29 22 11 8 3 2 4 6 11 10 5 9 8 8 12 5 8 10 7 7 11 17 17 6 3 14 9 15 9 10 8 12 13 14 16 11 21 11 12 11
37 37 34 31 30 22 11 6 5 5 9 9 6 11 4 12 6 3 8 11 18 18 14 11 14 8 8 6 9 1 5 2 8 8 10 13 16 20 17 18 20 19 8 6
37 37 35 30 28 23 11 17 16 6 6 2 5 4 9 19 17 8 9 21 19 20 18 20 20 18 25 13 9 13 11 4 3 13 2 6 3 21 20 17 17 16 13 7
37 37 35 30 26 20 17 18 19 4 4 4 6 15 15 17 20 21 25 25 17 9 13 17 18 23 12 6 5 5 5 7 3 3 4 4 7 11 12 21 21 19 8 9
37 37 36 31 25 21 19 16 13 4 4 9 11 15 12 24 25 17 20 23 23 26 14 4 4 3 2 2 5 7 6 4 1 4 7 2 2 5 15 12 13 9 14 6
37 37 36 31 25 20 19 13 10 12 7 4 21 11 17 10 9 8 8 26 14 15 4 4 5 3 4 4 5 2 4 9 7 4 6 10 4 5 8 5 13 10 11 13
37 38 37 31 25 19 15 10 12 12 7 11 13 7 6 9 7 5 11 16 10 9 3 3 2 3 7 6 7 6 5 4 12 9 4 5 5 3 10 9 7 3 24 25
38 39 37 30 23 17 12 10 9 13 6 22 8 14 16 12 6 4 11 11 3 3 2 3 3 3 5 4 6 7 8 7 5 4 5 9 8 3 8 2 3 2 7 21
41 40 36 29 19 15 10 8 11 15 13 14 24 15 9 14 10 10 6 5 7 6 4 3 3 1 2 4 4 1 4 4 6 6 4 4 7 5 3 2 3 4 21 26
44 41 32 23 18 13 8 9 12 13 9 17 5 4 13 21 16 8 4 5 8 6 10 3 3 3 3 2 1 4 3 5 3 5 4 4 10 6 6 5 10 13 22 30
45 38 27 21 16 14 8 5 7 12 8 4 5 9 17 18 24 10 11 19 18 16 9 3 2 3 5 2 2 4 4 7 4 3 3 2 9 8 8 12 17 22 26 30
45 34 23 17 16 15 5 5 6 13 9 5 13 13 7 21 26 10 10 15 13 5 2 2 2 4 6 1 3 4 9 5 3 3 10 4 4 7 11 18 23 26 31 33
41 28 19 13 19 12 3 3 3 20 15 4 3 9 10 27 26 19 12 12 8 4 4 2 4 5 9 2 3 10 20 17 11 4 6 11 13 16 18 26 28 31 34 35
38 24 14 13 16 11 9 6 12 22 4 3 4 7 15 26 20 17 13 10 6 5 4 4 3 7 8 3 3 20 26 21 12 1 6 8 9 16 26 31 32 34 35 33
35 21 11 9 16 12 12 11 12 18 5 6 3 5 12 25 12 10 12 9 6 9 3 3 3 5 7 4 14 22 24 18 11 3 6 8 22 27 30 30 33 36 38 39
31 17 10 8 14 10 14 8 11 14 11 5 5 6 5 22 11 11 8 6 2 6 2 2 3 4 6 10 18 22 24 16 6 15 21 25 29 31 33 36 40 43 39 38
28 12 6 9 17 13 7 6 7 10 10 8 5 12 3 13 8 6 12 5 2 2 2 3 4 3 5 22 19 15 14 7 10 17 19 27 30 33 35 37 38 39 37 36
25 11 7 15 11 10 8 8 9 11 5 10 10 14 11 10 4 4 6 3 2 2 3 3 3 3 8 21 19 14 11 10 12 16 22 27 32 36 39 38 37 36 34 31
17 13 8 11 11 10 7 4 7 5 4 14 9 18 17 11 6 5 5 3 3 3 7 3 3 3 15 16 16 16 18 19 23 24 26 29 33 34 37 35 33 30 27 24
9 9 5 7 9 10 5 6 5 4 12 8 22 16 8 7 5 7 3 3 3 11 3 3 3 10 14 13 13 15 18 22 26 27 27 28 31 31 32 31 27 24 22 20
6 7 6 3 4 1 2 1 2 7 12 21 23 10 6 7 4 2 3 3 3 5 4 4 4 12 12 11 11 13 17 19 22 23 23 25 27 27 26 24 21 18 18 16
3 2 2 1 2 2 4 6 7 9 18 22 11 9 5 4 4 1 4 7 4 5 3 4 11 10 9 8 9 11 13 15 18 18 20 21 21 20 20 18 16 15 15 13
2 3 4 4 3 5 2 4 6 11 18 9 3 4 3 2 4 5 5 5 4 3 4 12 9 8 6 6 7 9 10 12 13 14 15 15 15 15 16 14 14 13 12 11
4 3 7 9 3 4 5 4 5 10 6 2 3 4 2 6 4 2 3 2 3 9 10 8 5 4 4 4 5 6 8 10 11 12 12 12 12 11 11 12 12 11 10 10
Wind_Direction
356 354 354 359 3 358 0 3 350 329 351 329 19 323 312 309 298 313 283 296 254 270 288 291 232 211 208 183 186 210 221 141 163 192 47 214 196 190 195 193 207 187 166 236
356 356 355 356 358 2 352 345 321 318 12 39 341 315 309 299 298 303 238 223 219 271 203 281 284 222 230 186 188 197 193 216 113 151 184 189 207 212 206 232 137 200 189 239
356 354 355 357 358 11 17 0 353 351 24 31 332 324 314 331 325 303 289 292 280 272 308 220 292 308 235 244 198 199 185 190 185 193 194 122 190 194 211 207 230 177 210 171
358 355 353 355 355 14 23 15 23 11 324 321 318 306 274 301 337 343 326 312 322 283 264 261 258 253 262 174 263 202 184 208 215 199 194 175 188 193 198 194 218 201 216 207
357 355 354 354 360 360 32 19 346 335 289 293 284 295 358 311 308 276 281 288 287 289 271 276 278 333 265 182 207 304 220 257 217 220 202 195 192 201 200 207 221 218 218 224
355 355 354 352 355 6 353 336 331 292 275 258 301 297 331 306 304 298 288 300 287 283 289 268 264 269 267 243 174 195 210 144 105 227 193 98 8 192 199 208 223 208 214 197
353 353 352 350 349 354 341 327 327 294 286 307 307 308 313 306 298 292 294 291 266 250 253 307 260 234 267 87 71 89 120 166 77 196 91 158 235 177 198 205 215 216 211 190
352 350 350 347 344 343 339 335 331 309 286 304 304 329 311 305 301 298 296 302 291 241 271 246 234 185 109 182 155 160 164 103 94 158 213 287 72 184 189 184 237 204 219 190
350 348 347 345 341 337 333 343 346 331 297 247 333 314 302 311 321 312 299 319 329 173 220 209 213 186 136 147 125 5 162 187 191 145 186 223 232 179 170 96 239 195 177 161
349 346 344 342 338 335 330 331 332 320 272 290 321 306 310 312 303 280 306 337 331 209 224 216 182 215 141 163 152 155 167 172 198 200 186 265 239 228 132 142 235 254 190 171
348 345 343 340 337 336 332 336 333 334 275 298 300 313 305 312 303 301 307 323 22 291 247 202 223 229 213 123 155 170 167 168 183 184 192 243 162 65 161 206 341 334 172 166
348 347 345 341 340 340 338 336 334 320 294 273 307 307 316 329 314 297 303 277 298 333 321 337 312 323 359 164 175 307 163 185 171 184 187 25 30 54 100 126 140 89 139 146
351 351 352 350 346 347 344 332 326 346 302 314 315 277 355 4 351 320 286 300 324 275 304 301 298 258 2 167 163 101 53 5 111 137 11 22 24 44 79 125 129 140 146 145
353 354 356 356 359 360 345 321 4 8 333 287 290 328 325 348 345 317 306 310 321 293 287 256 300 329 340 20 69 64 335 327 3 63 32 38 38 61 110 122 129 135 139 144
354 355 359 7 9 358 15 4 6 0 13 297 296 329 354 352 353 326 308 330 330 317 308 306 343 17 332 352 97 45 356 0 360 53 347 351 61 95 126 127 130 137 138 133
354 356 0 15 13 11 1 348 347 345 341 277 297 323 327 340 353 351 341 349 339 326 344 355 44 346 325 46 70 13 353 343 325 300 34 111 112 122 136 130 130 132 134 137
353 354 357 1 14 30 51 24 332 343 5 316 299 333 341 341 353 350 341 354 338 359 12 26 21 11 22 38 39 335 334 338 338 229 141 106 108 109 127 132 128 132 135 137
353 352 354 358 12 20 18 18 12 16 50 38 39 314 329 357 333 327 338 328 324 19 41 38 18 26 36 51 337 335 342 355 8 323 279 170 135 131 124 130 136 129 125 133
354 355 355 0 9 359 356 9 22 36 57 71 60 352 321 336 325 307 322 319 325 356 31 39 39 35 45 336 332 337 349 352 53 105 117 120 115 113 117 125 125 122 125 130
359 8 26 10 343 344 4 29 24 29 29 48 48 357 300 324 322 290 348 317 321 339 42 357 59 82 44 2 359 360 10 38 96 92 85 104 101 109 113 115 120 119 117 119
4 6 5 353 9 23 32 36 34 359 39 10 356 350 329 319 308 303 305 316 305 324 3 1 55 42 358 3 19 29 54 85 102 115 117 116 119 119 115 112 113 113 114 112
350 348 357 8 24 22 61 10 3 21 355 349 352 334 315 295 293 281 310 293 296 6 326 32 60 33 5 18 33 55 73 91 104 111 111 115 116 115 112 112 112 111 111 110
1 6 29 15 6 37 60 354 323 336 339 325 332 329 299 303 279 279 312 307 352 314 44 62 34 2 10 24 45 66 84 93 98 99 102 104 104 104 102 100 98 103 109 112
19 19 18 76 0 104 171 204 260 288 306 317 321 302 299 303 298 330 312 324 41 13 43 40 13 11 5 23 46 68 73 81 87 90 93 92 93 94 97 101 106 110 109 107
70 70 99 85 168 193 241 291 309 313 307 321 314 305 253 279 297 5 345 356 61 31 24 358 360 358 7 20 43 65 75 81 85 89 90 91 92 97 99 99 102 101 99 98
108 104 103 166 176 191 265 303 311 320 330 343 301 279 308 349 322 21 16 339 43 3 336 349 353 355 17 39 54 66 77 84 88 89 89 92 95 95 93 95 93 90 87 85
163 159 165 179 198 191 219 288 309 335 6 20 331 4 272 297 357 55 15 25 352 327 341 341 345 7 29 47 69 81 90 95 93 93 93 92 90 89 91 90 84 79 77 74
Height
1486 1479 1473 1466 1459 1451 1446 1444 1444 1441 1439 1440 1440 1438 1433 1428 1422 1420 1421 1419 1414 1412 1412 1407 1393 1382 1378 1381 1390 1397 1399 1406 1430 1428 1424 1422 1426 1430 1433 1441 1451 1451 1460 1450
1486 1480 1473 1467 1460 1454 1449 1447 1445 1443 1442 1443 1442 1436 1431 1425 1420 1415 1416 1415 1412 1411 1412 1410 1399 1387 1376 1377 1380 1388 1393 1407 1428 1434 1431 1429 1426 1421 1421 1424 1432 1443 1458 1448
1488 1481 1474 1468 1462 1456 1451 1449 1448 1445 1445 1447 1446 1440 1430 1426 1420 1417 1413 1407 1404 1407 1403 1406 1397 1391 1379 1377 1377 1382 1386 1394 1400 1414 1405 1414 1424 1422 1423 1429 1443 1436 1433 1431
1490 1483 1477 1469 1463 1458 1454 1452 1453 1453 1450 1446 1446 1444 1437 1431 1427 1421 1417 1411 1409 1410 1409 1404 1399 1391 1387 1375 1378 1380 1384 1392 1392 1393 1398 1404 1410 1417 1419 1427 1417 1434 1422 1426
1491 1484 1479 1473 1467 1460 1458 1457 1457 1454 1450 1448 1446 1439 1433 1434 1429 1431 1425 1421 1414 1410 1410 1405 1395 1397 1382 1376 1381 1388 1382 1402 1394 1400 1394 1398 1406 1409 1414 1417 1412 1416 1419 1422
1492 1486 1480 1474 1469 1465 1462 1460 1457 1455 1447 1444 1443 1438 1435 1433 1429 1421 1417 1416 1410 1402 1395 1399 1395 1396 1392 1379 1379 1385 1391 1402 1411 1402 1397 1406 1421 1401 1403 1407 1408 1411 1421 1418
1492 1486 1480 1475 1470 1467 1465 1462 1455 1452 1446 1442 1441 1438 1434 1429 1422 1414 1406 1405 1406 1398 1399 1396 1392 1388 1382 1374 1376 1381 1393 1397 1408 1421 1417 1431 1391 1388 1392 1397 1397 1402 1402 1407
1489 1484 1478 1472 1468 1464 1461 1459 1457 1453 1447 1442 1436 1433 1429 1421 1413 1406 1401 1394 1389 1390 1393 1391 1380 1378 1380 1380 1380 1382 1385 1398 1404 1406 1404 1397 1393 1391 1390 1396 1398 1397 1402 1405
1488 1481 1475 1470 1465 1462 1458 1455 1455 1453 1448 1439 1437 1431 1426 1421 1413 1404 1398 1387 1378 1381 1385 1381 1372 1368 1371 1376 1384 1385 1386 1390 1401 1408 1406 1404 1381 1380 1380 1386 1395 1389 1393 1401
1486 1480 1473 1467 1462 1459 1456 1453 1452 1451 1447 1437 1437 1434 1428 1424 1419 1412 1400 1394 1382 1381 1377 1372 1369 1373 1363 1373 1377 1385 1389 1393 1393 1396 1398 1398 1384 1381 1380 1404 1393 1383 1385 1390
1483 1477 1471 1464 1459 1455 1454 1451 1450 1450 1444 1436 1433 1431 1429 1424 1421 1416 1405 1395 1389 1382 1376 1372 1369 1371 1365 1365 1368 1373 1376 1383 1387 1392 1392 1395 1379 1382 1387 1387 1385 1384 1383 1387
1479 1472 1465 1461 1456 1453 1451 1450 1448 1446 1443 1435 1433 1429 1428 1425 1421 1417 1410 1407 1402 1395 1389 1376 1368 1365 1367 1359 1373 1367 1374 1368 1376 1377 1381 1384 1384 1384 1384 1384 1384 1385 1385 1390
1476 1467 1461 1457 1454 1451 1450 1450 1447 1444 1439 1431 1430 1428 1427 1423 1419 1416 1414 1406 1403 1399 1400 1394 1381 1368 1373 1368 1373 1374 1378 1379 1374 1377 1389 1388 1388 1387 1385 1385 1384 1386 1390 1394
1473 1464 1459 1456 1453 1452 1450 1449 1447 1446 1443 1438 1428 1426 1425 1423 1418 1413 1411 1406 1401 1396 1393 1392 1385 1377 1379 1376 1375 1381 1398 1387 1384 1390 1390 1391 1391 1390 1389 1389 1389 1392 1394 1399
1472 1464 1459 1455 1453 1451 1450 1449 1448 1448 1450 1444 1431 1425 1423 1421 1417 1412 1410 1406 1401 1396 1393 1393 1390 1389 1388 1380 1384 1405 1409 1408 1399 1393 1397 1395 1394 1393 1392 1391 1393 1397 1398 1404
1471 1464 1460 1457 1453 1451 1450 1450 1450 1448 1444 1443 1435 1427 1422 1419 1414 1410 1406 1403 1400 1397 1395 1394 1392 1395 1393 1386 1403 1417 1413 1410 1407 1402 1400 1396 1395 1395 1397 1396 1398 1399 1402 1408
1470 1464 1461 1459 1454 1452 1452 1455 1452 1446 1443 1442 1436 1432 1426 1420 1414 1409 1405 1403 1401 1399 1398 1398 1399 1399 1396 1402 1416 1420 1413 1409 1404 1402 1402 1400 1398 1399 1400 1398 1399 1401 1407 1414
1471 1464 1461 1459 1456 1453 1452 1452 1451 1445 1444 1445 1451 1448 1437 1429 1423 1416 1410 1407 1403 1402 1403 1405 1405 1406 1411 1421 1428 1422 1417 1408 1404 1402 1402 1401 1402 1401 1402 1403 1404 1407 1413 1422
1470 1464 1461 1459 1458 1455 1454 1452 1451 1450 1450 1454 1463 1467 1456 1441 1435 1425 1416 1411 1406 1407 1408 1409 1409 1421 1433 1440 1434 1425 1416 1413 1412 1408 1407 1405 1404 1405 1408 1409 1412 1413 1423 1427
1470 1465 1463 1463 1463 1458 1456 1453 1454 1454 1460 1464 1471 1470 1467 1458 1447 1432 1425 1416 1412 1408 1414 1412 1418 1436 1442 1438 1433 1427 1422 1420 1417 1413 1413 1411 1410 1412 1413 1416 1421 1424 1429 1434
1474 1469 1468 1467 1463 1461 1459 1463 1467 1471 1474 1476 1475 1474 1470 1460 1454 1444 1435 1427 1417 1411 1417 1413 1424 1442 1446 1442 1436 1432 1428 1424 1421 1419 1418 1418 1418 1418 1418 1423 1428 1431 1436 1442
1479 1477 1474 1471 1470 1470 1474 1486 1484 1485 1488 1484 1480 1477 1472 1461 1455 1447 1437 1432 1422 1418 1423 1422 1441 1456 1454 1448 1443 1439 1434 1431 1427 1425 1425 1426 1424 1426 1424 1429 1434 1438 1442 1448
1480 1479 1477 1480 1485 1492 1503 1509 1504 1501 1493 1488 1485 1479 1473 1464 1458 1450 1445 1438 1429 1428 1432 1450 1462 1461 1457 1454 1450 1446 1443 1440 1436 1434 1435 1435 1431 1431 1433 1436 1442 1446 1450 1454
1484 1485 1492 1494 1503 1501 1501 1501 1501 1499 1494 1490 1486 1481 1477 1468 1460 1453 1451 1440 1439 1439 1447 1462 1466 1464 1461 1458 1454 1450 1447 1444 1442 1441 1441 1440 1438 1439 1443 1447 1451 1454 1456 1459
1486 1488 1498 1499 1497 1497 1498 1498 1496 1496 1493 1488 1484 1481 1479 1470 1462 1456 1455 1452 1459 1468 1472 1472 1470 1466 1463 1460 1457 1455 1452 1450 1449 1449 1448 1449 1449 1451 1452 1455 1457 1459 1460 1462
1489 1490 1493 1496 1497 1495 1495 1495 1494 1492 1490 1486 1486 1483 1478 1468 1470 1468 1473 1468 1478 1479 1478 1476 1472 1469 1467 1464 1462 1459 1457 1456 1456 1456 1456 1457 1457 1458 1459 1460 1461 1461 1463 1464
1487 1487 1487 1491 1493 1492 1492 1492 1491 1490 1489 1489 1488 1491 1485 1480 1478 1479 1480 1482 1483 1482 1479 1476 1474 1472 1470 1468 1467 1465 1464 1463 1462 1462 1462 1463 1463 1463 1464 1464 1464 1464 1465 1466